• In United Kingdom
  • List of Countries
  • For 7 days
  • Water Temperature
  • Satellite Maps
  • Weather Map
  • Weather Widgets
  • user-avatar
    Login

    Hourly Weather Gorodenka

    Today, 15 December, Friday

    Time Temperature Precipitation Wind Pressure Humidity
    00:00 +4°C° 0 mm 2 mps 730 mmHg 75%
    01:00 +3°C° 0 mm 2 mps 730 mmHg 77%
    02:00 +2°C° 0 mm 2 mps 729 mmHg 83%
    03:00 +3°C° 0.1 mm 2 mps 729 mmHg 83%
    04:00 +3°C° 0.1 mm 2 mps 729 mmHg 84%
    05:00 +3°C° 0.1 mm 2 mps 729 mmHg 85%
    06:00 +3°C° 0.1 mm 2 mps 729 mmHg 85%
    07:00 +3°C° 0.1 mm 2 mps 729 mmHg 86%
    08:00 +3°C° 0.1 mm 2 mps 729 mmHg 86%
    09:00 +4°C° 0 mm 2 mps 728 mmHg 82%
    10:00 +4°C° 0 mm 3 mps 728 mmHg 78%
    11:00 +5°C° 0 mm 3 mps 728 mmHg 74%
    12:00 +7°C° 0.7 mm 3 mps 727 mmHg 75%
    13:00 +6°C° 0.7 mm 4 mps 727 mmHg 76%
    14:00 +6°C° 0.7 mm 4 mps 727 mmHg 77%
    15:00 +6°C° 0 mm 4 mps 727 mmHg 77%
    16:00 +6°C° 0 mm 4 mps 727 mmHg 77%
    17:00 +6°C° 0 mm 4 mps 727 mmHg 77%
    18:00 +6°C° 0 mm 4 mps 727 mmHg 78%
    19:00 +6°C° 0 mm 4 mps 727 mmHg 78%
    20:00 +7°C° 0 mm 3 mps 727 mmHg 79%
    21:00 +5°C° 0 mm 3 mps 727 mmHg 80%
    22:00 +5°C° 0 mm 3 mps 728 mmHg 81%
    23:00 +5°C° 0 mm 3 mps 728 mmHg 82%

    Tomorrow, 16 December, Saturday

    Time Temperature Precipitation Wind Pressure Humidity
    00:00 +6°C° 0.5 mm 2 mps 727 mmHg 85%
    01:00 +6°C° 0.5 mm 2 mps 727 mmHg 87%
    02:00 +7°C° 0.5 mm 1 mps 726 mmHg 90%
    03:00 +6°C° 1.2 mm 2 mps 725 mmHg 91%
    04:00 +5°C° 1.2 mm 2 mps 725 mmHg 92%
    05:00 +4°C° 1.2 mm 3 mps 724 mmHg 93%
    06:00 +4°C° 0.3 mm 3 mps 723 mmHg 93%
    07:00 +5°C° 0.3 mm 2 mps 723 mmHg 92%
    08:00 +5°C° 0.3 mm 2 mps 722 mmHg 91%
    09:00 +4°C° 0.1 mm 3 mps 722 mmHg 88%
    10:00 +5°C° 0.1 mm 3 mps 722 mmHg 85%
    11:00 +7°C° 0.1 mm 3 mps 722 mmHg 82%
    12:00 +5°C° 0 mm 3 mps 723 mmHg 82%
    13:00 +5°C° 0 mm 4 mps 723 mmHg 82%
    14:00 +5°C° 0 mm 4 mps 724 mmHg 82%
    15:00 +4°C° 0 mm 4 mps 725 mmHg 83%
    16:00 +3°C° 0 mm 4 mps 725 mmHg 85%
    17:00 +2°C° 0 mm 3 mps 726 mmHg 87%
    18:00 +1°C° 0 mm 4 mps 727 mmHg 87%
    19:00 +1°C° 0 mm 4 mps 728 mmHg 87%
    20:00 0°C° 0 mm 4 mps 729 mmHg 87%
    21:00 0°C° 0 mm 4 mps 730 mmHg 87%
    22:00 0°C° 0 mm 4 mps 731 mmHg 88%
    23:00 0°C° 0 mm 4 mps 732 mmHg 88%

    Day after tomorrow, 17 December, Sunday

    Time Temperature Precipitation Wind Pressure Humidity
    00:00 0°C° 0 mm 4 mps 732 mmHg 88%
    01:00 -1°C° 0 mm 4 mps 733 mmHg 89%
    02:00 -1°C° 0 mm 4 mps 733 mmHg 89%
    03:00 -1°C° 0 mm 4 mps 733 mmHg 89%
    04:00 -1°C° 0 mm 4 mps 734 mmHg 88%
    05:00 -1°C° 0 mm 4 mps 734 mmHg 87%
    06:00 -1°C° 0 mm 3 mps 734 mmHg 87%
    07:00 -1°C° 0 mm 3 mps 735 mmHg 87%
    08:00 -2°C° 0 mm 3 mps 735 mmHg 87%
    09:00 -1°C° 0 mm 3 mps 736 mmHg 82%
    10:00 0°C° 0 mm 3 mps 736 mmHg 77%
    11:00 0°C° 0 mm 3 mps 736 mmHg 72%
    12:00 0°C° 0 mm 3 mps 736 mmHg 70%
    13:00 +1°C° 0 mm 3 mps 736 mmHg 69%
    14:00 +1°C° 0 mm 3 mps 736 mmHg 67%
    15:00 0°C° 0 mm 3 mps 737 mmHg 71%
    16:00 0°C° 0 mm 3 mps 737 mmHg 75%
    17:00 -1°C° 0 mm 3 mps 737 mmHg 79%
    18:00 -1°C° 0 mm 2 mps 738 mmHg 80%
    19:00 -1°C° 0 mm 2 mps 738 mmHg 82%
    20:00 -1°C° 0 mm 2 mps 739 mmHg 83%
    21:00 -1°C° 0 mm 2 mps 739 mmHg 83%
    22:00 -2°C° 0 mm 2 mps 739 mmHg 84%
    23:00 -2°C° 0 mm 2 mps 739 mmHg 84%

    18 December, Monday

    Time Temperature Precipitation Wind Pressure Humidity
    00:00 -2°C° 0 mm 2 mps 740 mmHg 85%
    01:00 -2°C° 0 mm 2 mps 740 mmHg 85%
    02:00 -2°C° 0 mm 2 mps 740 mmHg 85%
    03:00 -3°C° 0 mm 2 mps 740 mmHg 84%
    04:00 -3°C° 0 mm 2 mps 740 mmHg 83%
    05:00 -4°C° 0 mm 3 mps 740 mmHg 82%
    06:00 -3°C° 0 mm 2 mps 740 mmHg 82%
    07:00 -3°C° 0 mm 2 mps 740 mmHg 82%
    08:00 -3°C° 0 mm 2 mps 740 mmHg 81%
    09:00 -2°C° 0 mm 2 mps 741 mmHg 78%
    10:00 -2°C° 0 mm 2 mps 741 mmHg 74%
    11:00 -1°C° 0 mm 3 mps 741 mmHg 70%
    12:00 -1°C° 0 mm 3 mps 741 mmHg 68%
    13:00 0°C° 0 mm 3 mps 741 mmHg 66%
    14:00 0°C° 0 mm 3 mps 741 mmHg 64%
    15:00 -1°C° 0 mm 2 mps 741 mmHg 68%
    16:00 -1°C° 0 mm 2 mps 741 mmHg 72%
    17:00 0°C° 0 mm 1 mps 741 mmHg 76%
    18:00 0°C° 0 mm 1 mps 741 mmHg 77%
    19:00 0°C° 0 mm 1 mps 742 mmHg 78%
    20:00 0°C° 0 mm 1 mps 742 mmHg 79%
    21:00 -1°C° 0 mm 1 mps 742 mmHg 79%
    22:00 -1°C° 0 mm 1 mps 743 mmHg 79%
    23:00 -1°C° 0 mm 1 mps 743 mmHg 79%

    19 December, Tuesday

    Time Temperature Precipitation Wind Pressure Humidity
    00:00 -1°C° 0 mm 1 mps 743 mmHg 79%
    01:00 -1°C° 0 mm 1 mps 743 mmHg 79%
    02:00 -1°C° 0 mm 1 mps 743 mmHg 79%
    03:00 -1°C° 0 mm 1 mps 743 mmHg 79%
    04:00 -1°C° 0 mm 1 mps 744 mmHg 78%
    05:00 -1°C° 0 mm 1 mps 744 mmHg 78%
    06:00 -1°C° 0 mm 1 mps 744 mmHg 79%
    07:00 -3°C° 0 mm 2 mps 745 mmHg 81%
    08:00 -3°C° 0 mm 2 mps 745 mmHg 82%
    09:00 -3°C° 0 mm 2 mps 746 mmHg 79%
    10:00 -2°C° 0 mm 2 mps 746 mmHg 76%
    11:00 -2°C° 0 mm 3 mps 747 mmHg 74%
    12:00 -2°C° 0 mm 3 mps 747 mmHg 72%
    13:00 -1°C° 0 mm 3 mps 747 mmHg 69%
    14:00 -2°C° 0 mm 4 mps 747 mmHg 67%
    15:00 -2°C° 0 mm 3 mps 747 mmHg 72%
    16:00 -4°C° 0 mm 3 mps 747 mmHg 76%
    17:00 -3°C° 0 mm 2 mps 748 mmHg 81%
    18:00 -4°C° 0 mm 3 mps 748 mmHg 82%
    19:00 -5°C° 0 mm 3 mps 748 mmHg 84%
    20:00 -5°C° 0 mm 3 mps 749 mmHg 85%
    21:00 -5°C° 0 mm 3 mps 749 mmHg 84%
    22:00 -5°C° 0 mm 3 mps 749 mmHg 83%
    23:00 -5°C° 0 mm 3 mps 749 mmHg 82%

    20 December, Wednesday

    Time Temperature Precipitation Wind Pressure Humidity
    00:00 -5°C° 0 mm 3 mps 749 mmHg 81%
    01:00 -5°C° 0 mm 3 mps 749 mmHg 80%
    02:00 -5°C° 0 mm 3 mps 749 mmHg 79%
    03:00 -5°C° 0 mm 3 mps 748 mmHg 78%
    04:00 -5°C° 0 mm 3 mps 748 mmHg 78%
    05:00 -5°C° 0 mm 3 mps 748 mmHg 77%
    06:00 -5°C° 0 mm 3 mps 748 mmHg 77%
    07:00 -5°C° 0 mm 3 mps 748 mmHg 76%
    08:00 -4°C° 0 mm 2 mps 747 mmHg 75%
    09:00 -4°C° 0 mm 2 mps 747 mmHg 72%
    10:00 -3°C° 0 mm 2 mps 747 mmHg 68%
    11:00 -2°C° 0 mm 2 mps 747 mmHg 64%
    12:00 -2°C° 0 mm 2 mps 747 mmHg 62%
    13:00 -1°C° 0 mm 2 mps 747 mmHg 60%
    14:00 -1°C° 0 mm 2 mps 746 mmHg 58%
    15:00 -1°C° 0 mm 2 mps 747 mmHg 62%
    16:00 -2°C° 0 mm 2 mps 747 mmHg 66%
    17:00 -1°C° 0 mm 1 mps 747 mmHg 70%
    18:00 -1°C° 0 mm 1 mps 747 mmHg 72%
    19:00 -3°C° 0 mm 2 mps 747 mmHg 74%
    20:00 -2°C° 0 mm 2 mps 747 mmHg 76%
    21:00 -3°C° 0 mm 2 mps 747 mmHg 77%
    22:00 -3°C° 0 mm 2 mps 747 mmHg 78%
    23:00 -3°C° 0 mm 2 mps 747 mmHg 79%
    Show more